Terug naar catalogus

YAOGAN-39 05A

ActiefMilitairVLEO
NORAD 58557·PAYLOAD·🇨🇳 China

Gelanceerd Dec 10, 2023 vanaf Xichang Satellite Launch Center

Loading…

Volgende Passages (komende 24 uur)

TLE

VersSource: Space-Track

Epoch: Sep 14, 2026, 21:41 UTC

1 58557U 23194A   26257.90415050  .00008283  00000-0  34384-3 0  9991
2 58557  35.0005 213.1654 0004542  33.6467 326.4536 15.23104345154042

Volg YAOGAN-39 05A in realtime met AllMySat

Download on the App Store